Starlink 11365

operational
NORAD ID: 62886 Int'l Des: 2025-024 Owner: SPXS Country: US Constellation: starlink
LEOCIRCULAR

关于 Starlink 11365

正在加载描述...

实时位置

正在加载3D地球...

即将过境

高度历史

Altitude vs Time

uPlot chart will show altitude changes over time

两行轨道根数

1 62886U 25024H 25258.98635933 .00206411 00000-0 15643-2 0 9996
2 62886 42.9995 154.2101 0002235 247.4647 112.5985 15.70962935 35994
Epoch: Sep 15, 2025 • Age: 23 hours

当前状态

高度 357.0 km
速度 7.70 km/s
星下点 30.96°N, 149.42°W
发射日期 Feb 4, 2025
运行时间 0.6 years
类型 internet

技术详情

分类 Payload
质量 960.00 kg
干质量 910.00 kg
总质量 960.00 kg
长度 0.30 m
直径 4.10 m
跨度 29.00 m
形状 Box + pan
制造商 SPXS
平台类型 Starlink V2MD
阶段状态 In Orbit
所有者/国家 SPXS/US

大型星座

Loading constellations...